• In Deutschland
  • Länderverzeichnis
  • Für 7 Tage
  • Wassertemperatur
  • Satellitenkarten
  • Wetterkarte
  • Widgets
  • user-avatar
    Anmelden

    Stündliche Wetter Gjirokaster

    Heute, 24 Juli, Montag

    Zeit Temperatur Niederschläge Wind Luftdruck Luftfeuchtigkeit
    00:00 +19°C° 0 mm 1 m/S 652 mmHg 63%
    01:00 +18°C° 0 mm 1 m/S 652 mmHg 64%
    02:00 +18°C° 0 mm 1 m/S 651 mmHg 63%
    03:00 +18°C° 0 mm 1 m/S 651 mmHg 61%
    04:00 +16°C° 0 mm 1 m/S 651 mmHg 60%
    05:00 +19°C° 0 mm 1 m/S 651 mmHg 55%
    06:00 +21°C° 0 mm 1 m/S 652 mmHg 50%
    07:00 +23°C° 0 mm 1 m/S 652 mmHg 45%
    08:00 +25°C° 0 mm 1 m/S 652 mmHg 40%
    09:00 +26°C° 0 mm 1 m/S 653 mmHg 36%
    10:00 +28°C° 0 mm 1 m/S 653 mmHg 31%
    11:00 +29°C° 0 mm 2 m/S 653 mmHg 30%
    12:00 +29°C° 0 mm 2 m/S 653 mmHg 28%
    13:00 +30°C° 0 mm 3 m/S 652 mmHg 27%
    14:00 +29°C° 0 mm 3 m/S 652 mmHg 29%
    15:00 +29°C° 0 mm 3 m/S 652 mmHg 31%
    16:00 +29°C° 0 mm 2 m/S 651 mmHg 32%
    17:00 +26°C° 0 mm 2 m/S 651 mmHg 39%
    18:00 +24°C° 0 mm 2 m/S 650 mmHg 45%
    19:00 +21°C° 0 mm 2 m/S 649 mmHg 52%
    20:00 +20°C° 0 mm 2 m/S 649 mmHg 54%
    21:00 +19°C° 0 mm 3 m/S 649 mmHg 57%
    22:00 +18°C° 0 mm 3 m/S 649 mmHg 59%
    23:00 +18°C° 0 mm 3 m/S 649 mmHg 61%

    Morgen, 25 Juli, Dienstag

    Zeit Temperatur Niederschläge Wind Luftdruck Luftfeuchtigkeit
    00:00 +17°C° 0 mm 3 m/S 648 mmHg 62%
    01:00 +17°C° 0 mm 3 m/S 648 mmHg 64%
    02:00 +16°C° 0 mm 3 m/S 648 mmHg 68%
    03:00 +15°C° 0 mm 2 m/S 648 mmHg 71%
    04:00 +15°C° 0 mm 2 m/S 647 mmHg 75%
    05:00 +16°C° 0 mm 2 m/S 648 mmHg 73%
    06:00 +17°C° 0 mm 2 m/S 648 mmHg 71%
    07:00 +19°C° 0 mm 2 m/S 648 mmHg 69%
    08:00 +20°C° 0 mm 2 m/S 648 mmHg 61%
    09:00 +21°C° 0 mm 2 m/S 649 mmHg 53%
    10:00 +24°C° 0 mm 3 m/S 649 mmHg 46%
    11:00 +24°C° 0 mm 3 m/S 649 mmHg 42%
    12:00 +25°C° 0 mm 3 m/S 649 mmHg 39%
    13:00 +25°C° 0 mm 4 m/S 649 mmHg 36%
    14:00 +25°C° 0 mm 4 m/S 648 mmHg 37%
    15:00 +23°C° 0 mm 4 m/S 648 mmHg 39%
    16:00 +23°C° 0 mm 4 m/S 648 mmHg 40%
    17:00 +21°C° 0 mm 3 m/S 648 mmHg 48%
    18:00 +19°C° 0 mm 3 m/S 647 mmHg 55%
    19:00 +17°C° 0 mm 2 m/S 647 mmHg 63%
    20:00 +16°C° 0 mm 2 m/S 647 mmHg 68%
    21:00 +15°C° 0 mm 2 m/S 647 mmHg 72%
    22:00 +15°C° 0 mm 2 m/S 647 mmHg 77%
    23:00 +14°C° 0 mm 2 m/S 647 mmHg 78%

    übermorgen, 26 Juli, Mittwoch

    Zeit Temperatur Niederschläge Wind Luftdruck Luftfeuchtigkeit
    00:00 +14°C° 0 mm 2 m/S 647 mmHg 79%
    01:00 +12°C° 0 mm 3 m/S 646 mmHg 81%
    02:00 +12°C° 0 mm 3 m/S 646 mmHg 81%
    03:00 +12°C° 0 mm 3 m/S 646 mmHg 82%
    04:00 +11°C° 0 mm 3 m/S 646 mmHg 82%
    05:00 +13°C° 0 mm 3 m/S 646 mmHg 76%
    06:00 +16°C° 0 mm 3 m/S 647 mmHg 71%
    07:00 +17°C° 0 mm 3 m/S 647 mmHg 65%
    08:00 +19°C° 0 mm 3 m/S 647 mmHg 60%
    09:00 +20°C° 0 mm 3 m/S 648 mmHg 55%
    10:00 +21°C° 0 mm 3 m/S 648 mmHg 50%
    11:00 +22°C° 0,1 mm 3 m/S 648 mmHg 50%
    12:00 +22°C° 0,1 mm 3 m/S 648 mmHg 50%
    13:00 +22°C° 0,1 mm 3 m/S 647 mmHg 50%
    14:00 +21°C° 0,2 mm 3 m/S 647 mmHg 53%
    15:00 +21°C° 0,2 mm 3 m/S 647 mmHg 56%
    16:00 +20°C° 0,2 mm 3 m/S 647 mmHg 59%
    17:00 +19°C° 0,2 mm 3 m/S 647 mmHg 65%
    18:00 +17°C° 0,2 mm 2 m/S 646 mmHg 71%
    19:00 +16°C° 0,2 mm 2 m/S 646 mmHg 77%
    20:00 +15°C° 0,1 mm 2 m/S 646 mmHg 81%
    21:00 +14°C° 0,1 mm 2 m/S 646 mmHg 84%
    22:00 +14°C° 0,1 mm 2 m/S 647 mmHg 87%
    23:00 +13°C° 0,1 mm 2 m/S 646 mmHg 88%

    27 Juli, Donnerstag

    Zeit Temperatur Niederschläge Wind Luftdruck Luftfeuchtigkeit
    00:00 +13°C° 0,1 mm 2 m/S 646 mmHg 90%
    01:00 +13°C° 0,1 mm 2 m/S 646 mmHg 91%
    02:00 +12°C° 0,4 mm 2 m/S 646 mmHg 91%
    03:00 +12°C° 0,4 mm 2 m/S 646 mmHg 91%
    04:00 +12°C° 0,4 mm 2 m/S 646 mmHg 92%
    05:00 +13°C° 0,2 mm 1 m/S 646 mmHg 85%
    06:00 +14°C° 0,2 mm 1 m/S 647 mmHg 79%
    07:00 +15°C° 0,2 mm 1 m/S 647 mmHg 73%
    08:00 +16°C° 0,3 mm 2 m/S 647 mmHg 68%
    09:00 +17°C° 0,3 mm 2 m/S 648 mmHg 64%
    10:00 +18°C° 0,3 mm 3 m/S 648 mmHg 59%
    11:00 +19°C° 0,7 mm 3 m/S 648 mmHg 59%
    12:00 +19°C° 0,7 mm 4 m/S 648 mmHg 58%
    13:00 +19°C° 0,7 mm 4 m/S 648 mmHg 58%
    14:00 +19°C° 0,6 mm 4 m/S 648 mmHg 59%
    15:00 +19°C° 0,6 mm 5 m/S 648 mmHg 60%
    16:00 +19°C° 0,6 mm 5 m/S 648 mmHg 61%
    17:00 +18°C° 0,3 mm 4 m/S 649 mmHg 67%
    18:00 +15°C° 0,3 mm 4 m/S 649 mmHg 72%
    19:00 +14°C° 0,3 mm 3 m/S 649 mmHg 78%
    20:00 +13°C° 0 mm 3 m/S 649 mmHg 80%
    21:00 +13°C° 0 mm 3 m/S 649 mmHg 82%
    22:00 +12°C° 0 mm 3 m/S 649 mmHg 85%
    23:00 +13°C° 0 mm 2 m/S 649 mmHg 85%

    28 Juli, Freitag

    Zeit Temperatur Niederschläge Wind Luftdruck Luftfeuchtigkeit
    00:00 +12°C° 0 mm 2 m/S 649 mmHg 85%
    01:00 +12°C° 0 mm 2 m/S 649 mmHg 84%
    02:00 +12°C° 0 mm 2 m/S 649 mmHg 83%
    03:00 +12°C° 0 mm 2 m/S 649 mmHg 82%
    04:00 +12°C° 0 mm 2 m/S 650 mmHg 82%
    05:00 +13°C° 0 mm 2 m/S 650 mmHg 76%
    06:00 +15°C° 0 mm 2 m/S 651 mmHg 70%
    07:00 +17°C° 0 mm 2 m/S 652 mmHg 63%
    08:00 +18°C° 0 mm 2 m/S 652 mmHg 56%
    09:00 +20°C° 0 mm 2 m/S 653 mmHg 48%
    10:00 +23°C° 0 mm 2 m/S 653 mmHg 41%
    11:00 +24°C° 0 mm 3 m/S 653 mmHg 39%
    12:00 +23°C° 0 mm 4 m/S 653 mmHg 37%
    13:00 +25°C° 0 mm 4 m/S 653 mmHg 35%
    14:00 +25°C° 0 mm 4 m/S 653 mmHg 36%
    15:00 +23°C° 0 mm 4 m/S 653 mmHg 38%
    16:00 +23°C° 0 mm 4 m/S 653 mmHg 39%
    17:00 +21°C° 0 mm 4 m/S 653 mmHg 45%
    18:00 +19°C° 0 mm 3 m/S 653 mmHg 50%
    19:00 +17°C° 0 mm 3 m/S 652 mmHg 56%
    20:00 +16°C° 0 mm 3 m/S 653 mmHg 57%
    21:00 +16°C° 0 mm 2 m/S 653 mmHg 57%
    22:00 +15°C° 0 mm 2 m/S 653 mmHg 58%
    23:00 +15°C° 0 mm 2 m/S 653 mmHg 58%

    29 Juli, Samstag

    Zeit Temperatur Niederschläge Wind Luftdruck Luftfeuchtigkeit
    00:00 +15°C° 0 mm 2 m/S 653 mmHg 58%
    01:00 +14°C° 0 mm 2 m/S 653 mmHg 59%
    02:00 +14°C° 0 mm 2 m/S 653 mmHg 59%
    03:00 +14°C° 0 mm 2 m/S 653 mmHg 59%
    04:00 +14°C° 0 mm 2 m/S 653 mmHg 60%
    05:00 +16°C° 0 mm 2 m/S 654 mmHg 57%
    06:00 +17°C° 0 mm 2 m/S 654 mmHg 54%
    07:00 +20°C° 0 mm 1 m/S 655 mmHg 50%
    08:00 +22°C° 0 mm 1 m/S 655 mmHg 45%
    09:00 +24°C° 0 mm 1 m/S 656 mmHg 40%
    10:00 +26°C° 0 mm 1 m/S 657 mmHg 35%
    11:00 +27°C° 0 mm 1 m/S 657 mmHg 34%
    12:00 +27°C° 0 mm 2 m/S 657 mmHg 33%
    13:00 +28°C° 0 mm 3 m/S 657 mmHg 31%
    14:00 +27°C° 0 mm 3 m/S 656 mmHg 33%
    15:00 +27°C° 0 mm 3 m/S 656 mmHg 35%
    16:00 +27°C° 0 mm 3 m/S 656 mmHg 36%
    17:00 +25°C° 0 mm 2 m/S 656 mmHg 43%
    18:00 +23°C° 0 mm 2 m/S 655 mmHg 49%
    19:00 +20°C° 0 mm 2 m/S 655 mmHg 55%
    20:00 +20°C° 0 mm 1 m/S 655 mmHg 57%
    21:00 +19°C° 0 mm 1 m/S 655 mmHg 59%
    22:00 +19°C° 0 mm 1 m/S 655 mmHg 60%
    23:00 +18°C° 0 mm 1 m/S 655 mmHg 61%
    Mehr zeigen